Regional Weather Roundup
Issued by NWS

Home | Current Version | Previous Version | Text Only | Print | Product List | Glossary Off
Versions: 1 2 3 4 5 6 7 8 9 10 11 12 13 14 15 16 17 18 19 20 21 22 23 24 25 26 27 28 29 30 31 32 33 34 35 36 37 38 39 40 41 42 43 44 45 46 47 48 49 50

000
ASUS43 KMPX 211501
RWRMN
WEATHER ROUNDUP FOR MINNESOTA
NATIONAL WEATHER SERVICE TWIN CITIES/CHANHASSEN MN
900 AM CST TUE NOV 21 2017


NOTE: "FAIR" INDICATES FEW OR NO CLOUDS BELOW 12,000 FEET WITH NO
SIGNIFICANT WEATHER AND/OR OBSTRUCTIONS TO VISIBILITY. N/A MEANS
CURRENT SKY AND/OR WEATHER CONDITIONS ARE NOT AVAILABLE.

MNZ060>063-068>070-211600-
   Twin Cities Metro

CITY           SKY/WX    TMP DP  RH WIND       PRES   REMARKS
TWIN CITIES    MOSUNNY   23  11  60 NW22G28   29.98R WCI   8
ST PAUL        MOSUNNY   23   9  55 NW26G36   29.99R WCI   6
CRYSTAL        CLOUDY    22   7  52 NW20G30   29.98R WCI   7
BLAINE         PTSUNNY   23  10  58 NW21G30   29.96R WCI   8
LAKEVILLE      CLOUDY    21  12  68 NW24G33   29.96R WCI   4
EDEN PRAIRIE   PTSUNNY   23   9  55 NW24G30   29.98R WCI   7
SOUTH ST PAUL  MOSUNNY   24   9  53 NW20G29   29.97R WCI   9
LAKE ELMO      PTSUNNY   25  12  58 NW17G24   29.96R WCI  11
$$
MNZ001>005-007-008-013>017-022>024-027-028-211600-
   Northwest Minnesota

CITY           SKY/WX    TMP DP  RH WIND       PRES   REMARKS
BEMIDJI        FLURRIES  13   8  79 NW20      30.03R WCI  -5
HALLOCK        FLURRIES  12   9  85 NW17      30.18R WCI  -5
ROSEAU         LGT SNOW  16   9  73 NW13G21   30.09R WCI   2
WARROAD        LGT SNOW  14   9  79 W14G20    30.07R WCI  -1
CROOKSTON      MOCLDY    12   9  85 N21G29    30.18R WCI  -6
FOSSTON        FLURRIES  10   5  79 NW16G24   30.11R WCI  -7
DETROIT LAKES  LGT SNOW  14  10  85 NW23G30   30.11R WCI  -5
MOORHEAD       MOSUNNY   14   7  73 N22G30    30.18R WCI  -4
PARK RAPIDS    MIX PCPN  14   6  70 NW22G30   30.02R WCI  -4
MAHNOMEN       CLOUDY    11   6  80 NW24      30.10R WCI  -8
$$
MNZ006-009>011-018-025>026-211600-
   North Central Minnesota

CITY           SKY/WX    TMP DP  RH WIND       PRES   REMARKS
BAUDETTE       CLOUDY    13   8  81 NW22G36   30.01R WCI  -6
FLAG ISLAND    LGT SNOW  12   9  85 NW23      30.03R WCI  -7
INTL FALLS       N/A     14   6  70 NW16      29.95R WCI  -2
WASKISH        MOSUNNY   14   9  79 NW14G22   30.03R WCI  -1
BIG FORK       PTSUNNY   16   7  67 NW10G21   29.95R WCI   3
LONGVILLE      FLURRIES  18  10  73 NW13G22   29.98R WCI   4
GRAND RAPIDS   FLURRIES  17   9  70 N22G32    29.95R WCI   0
CRANE LAKE     CLOUDY    14   9  79 NW13G24   29.92R WCI   0
ORR            PTSUNNY   16   7  67 NW15G22   29.88R WCI   1
COOK           PTSUNNY   16   9  73 NW13G20   29.89R WCI   2
WALKER         FLURRIES  15   8  73 NW16G25   30.01R WCI  -1
$$
MNZ012-019>021-037-211600-
   Northeast Minnesota

CITY           SKY/WX    TMP DP  RH WIND       PRES   REMARKS
DULUTH         FLURRIES  19  10  68 NW15G24   29.83R WCI   5
ELY            FLURRIES  16   7  67 NW16G28   29.82R WCI   0
HIBBING        MIX PCPN  16   8  71 NW26G35   29.89R WCI  -3
EVELETH        FLURRIES  18   9  68 NW16G23   29.88R WCI   3
DULUTH HARBOR  CLOUDY    25  12  58 NW23      29.90R WCI  10
TWO HARBORS    PTSUNNY   23  12  63 NW6G17    29.80R WCI  16
SILVER BAY     FLURRIES  19  10  68 NW12G22   29.77R WCI   7
GRAND MARAIS     N/A     21   9  59 NW10G18   29.75R WCI  10
G MARAIS ARPRT LGT SNOW  12   5  73 NW9G24    29.66R WCI   0
$$
MNZ029>031-032-039>041-046>048-054>057-064-211600-
   West Central Minnesota

CITY           SKY/WX    TMP DP  RH WIND       PRES   REMARKS
FERGUS FALLS   FLURRIES  14   9  79 N22G30    30.17R WCI  -4
WHEATON        MOSUNNY   18   7  62 NW23G33   30.19R WCI   0
MORRIS         FLURRIES  18   9  68 NW26G35   30.11R WCI  -1
ALEXANDRIA     FLURRIES  17  10  74 NW20G29   30.06R WCI   1
ELBOW LAKE     PTSUNNY   15   9  76 NW21G31   30.12R HAZE    WCI  -3
WADENA         FLURRIES  12   7  79 NW18G29   30.04R WCI  -5
GLENWOOD       MOSUNNY   18  10  73 NW25G35   30.05R WCI  -1
APPLETON       PTSUNNY   19   9  63 NW24G38   30.14R WCI   2
BENSON         CLOUDY    19   9  63 N32       30.11R WCI   0
ORTONVILLE     FLURRIES  18  10  73 MISG      30.16R
MADISON        CLOUDY    21  12  68 NW24G36   30.15R WCI   4
WILLMAR        FAIR      21  12  68 NW23G36   30.07R WCI   5
$$
MNZ033>034-036-042>043-049>051-058-059-211600-
   Central Minnesota

CITY           SKY/WX    TMP DP  RH WIND       PRES   REMARKS
ST CLOUD       FLURRIES  19  11  70 NW25G32   30.00R WCI   1
SAUK CENTRE    FAIR      18  10  71 NW21G29   30.03R WCI   1
PAYNESVILLE    MOSUNNY   19  13  74 NW17G29   30.04R WCI   4
AITKIN         LGT SNOW  18  12  79 NW9G18    29.94R WCI   6
PINE RIVER     LGT SNOW  16   9  73 NW14G22   30.03R WCI   1
BRAINERD       FLURRIES  19   8  62 NW21G32   29.99R WCI   3
STAPLES        CLOUDY    16   7  67 NW20G29   30.02R WCI  -1
LONG PRAIRIE   FLURRIES  16  10  79 W23G31    30.01R WCI  -2
LITTLE FALLS   FLURRIES  19   5  53 NW16G24   30.02R WCI   5
LITCHFIELD     PTSUNNY   21  14  73 NW21G29   30.03R WCI   6
BUFFALO        PTSUNNY   21  10  62 NW14G28   30.01R WCI   8
MAPLE LAKE     CLOUDY    21  13  70 NW16G29   30.02R WCI   7
HUTCHINSON     PTSUNNY   23  14  69 NW18G29   30.03R WCI   8
$$
MNZ037-044-045-052-053-211600-
   East Central Minnesota

CITY           SKY/WX    TMP DP  RH WIND       PRES   REMARKS
PRINCETON      CLOUDY    21  10  63 NW13G24   29.98R WCI   9
MORA           PTSUNNY   21  12  68 NW18G26   29.94R WCI   6
CAMBRIDGE      CLOUDY    23  10  58 NW15G28   29.97R WCI  10
RUSH CITY      CLOUDY    21  10  63 NW17G28   29.95R WCI   7
MOOSE LAKE     FLURRIES  21  12  68 NW13G21   29.90R WCI   9
HINCKLEY       CLOUDY    23  12  63 NW18      29.93R WCI   9
CLOQUET        FLURRIES  19  10  68 NW12G24   29.87R WCI   7
MCGREGOR       CLOUDY    21  12  68 NW16G24   29.93R WCI   7
$$
MNZ071>073-080-081-089-090-097-098-211600-
   Southwest Minnesota

CITY           SKY/WX    TMP DP  RH WIND       PRES   REMARKS
MONTEVIDEO     CLOUDY    21  10  63 N22G36    30.12R WCI   5
GRANITE FALLS  PTSUNNY   22  13  67 NW22G40   30.13R WCI   7
CANBY          CLOUDY    20  11  68 W25G33    30.17R WCI   3
MARSHALL       CLOUDY    19  10  68 NW22G40   30.12R WCI   2
REDWOOD FALLS  PTSUNNY   22   9  57 NW22G37   30.08R WCI   6
OLIVIA         MOSUNNY   21  12  68 NW25G37   30.06R WCI   4
PIPESTONE      CLOUDY    18   9  68 N22G31    30.12R WCI   0
WINDOM           N/A     21   7  53 NW31G39   30.04R WCI   3
WORTHINGTON    PTSUNNY   19  10  68 NW26G36   30.09R WCI   1
JACKSON        PTSUNNY   21  12  68 NW30G38   30.05R WCI   3
SLAYTON        CLOUDY    19  11  69 NW24G37   30.08R WCI   2
$$
MNZ065>067-074>077-082>085-091>093-211600-
   South Central Minnesota

CITY           SKY/WX    TMP DP  RH WIND       PRES   REMARKS
MANKATO        CLOUDY    22  12  65 NW28G37   30.01R WCI   4
NEW ULM        CLOUDY    21  10  63 NW17G36   30.05R WCI   7
ST JAMES       CLOUDY    23  12  63 NW28G36   30.05R WCI   6
FAIRMONT       CLOUDY    22  12  65 NW28G41   30.04R WCI   4
GLENCOE        CLOUDY    24  15  68 NW20G30   30.01R WCI   9
FARIBAULT      CLOUDY    25  14  63 NW21G29   29.96R WCI  10
OWATONNA       CLOUDY    25  16  68 NW25G31   29.95R WCI   9
WASECA         CLOUDY    23  12  63 NW28G33   29.99R WCI   6
ALBERT LEA     CLOUDY    25  12  58 NW17G29   29.96R WCI  11
$$
MNZ078>079-086>088-094>096-211600-
   Southeast Minnesota

CITY           SKY/WX    TMP DP  RH WIND       PRES   REMARKS
ROCHESTER      CLOUDY    25  17  72 NW23G31   29.89R WCI  10
RED WING       PTSUNNY   27   9  46 NW18G28   29.92R WCI  13
STANTON        CLOUDY    27  13  56 NW21G30   29.94R WCI  13
DODGE CENTER   FLURRIES  25  16  68 NW22G29   29.90R WCI  10
WINONA           N/A     32  19  59 NW14G28   29.88R WCI  22
AUSTIN         CLOUDY    25  14  63 NW21G33   29.93R WCI  10
PRESTON        CLOUDY    25  16  69 NW23G30   29.89R WCI  10
$$
ABBREVIATIONS USED IN REMARKS
   TC - TEMPERATURES IN CELSIUS
  WCI - WIND CHILL INDEX
   HX - HEAT INDEX
  VSB - VISIBILITY
$$




USA.gov is the U.S. government's official web portal to all federal, state and local government web resources and services.